Weather in Timiryazevo

Russia / Penza Oblast     53°16′56″N   42°51′41″E
temp.,
°C
wind,
m/s
gust,
m/s
humid.,
%
clouds,
%
prec.,
mm/h
press.,
hPa
HPBL,
m
18 may, tue
tue1800:00+17se41359100 0.0 1013190
03:00+16ese412585 0.0 1013172
06:00+16ese5146645 0.0 1012247
09:00+22ese6145823 0.0 1012550
12:00+26ese69460 0.0 1011723
15:00+27ese712514 0.0 10101100
18:00+24ese613605 0.0 1010350
21:00+20e614640 0.0 1009230
19 may, wed
wed1900:00+20se7205128 0.0 1009528
03:00+17ese5145936 0.0 1009274
06:00+17ese41469100 0.0 1009336
09:00+21se51163100 0.1 1009569
12:00+24se5853100 0.0 1009952
15:00+26ese6115791 0.0 10081559
18:00+24ese6136422 0.0 1007453
21:00+20ese9186416 0.1 1008498
20 may, thu
thu2000:00+16ssw478764 0.3 1009183
03:00+15sse3596100 1.6 1010160
06:00+15sse589376 0.1 1010472
09:00+16sse6880100 0.1 1011911
12:00+19s686195 0.1 10111692
15:00+18s7969100 0.6 10111165
18:00+17s61079100 0.5 1011837
21:00+13s410905 0.6 1012267
21 may, fri
fri2100:00+12s410955 0.0 1012259
03:00+13s5118958 0.0 1012384
06:00+13s612894 0.0 1013435
09:00+16sw9147251 0.0 10141209
12:00+17sw8126121 0.0 10151208
15:00+19wsw8125811 0.0 10161627
18:00+17wsw4868100 0.0 1017550
21:00+13wnw348181 0.0 101950
22 may, sat
sat2200:00+12nnw2286100 0.0 102138
03:00+11e2483100 0.1 1021125
06:00+11nne4789100 0.5 1022252
09:00+13ne7980100 0.6 1021479
12:00+18ene797197 0.0 1019921
15:00+25sse485369 0.0 10161947
18:00+23sse3770100 0.0 1015188
21:00+18se3685100 0.0 101592